Regional Weather Roundup
Issued by NWS

Home | Current Version | Previous Version | Graphics & Text | Print | Product List | Glossary On
Versions: 1 2 3 4 5 6 7 8 9 10 11 12 13 14 15 16 17 18 19 20 21 22 23 24 25 26 27 28 29 30 31 32 33 34 35 36 37 38 39 40 41 42 43 44 45 46 47 48 49 50
000
ASUS43 KTOP 211608
RWRKS

WEATHER ROUNDUP FOR KANSAS
NATIONAL WEATHER SERVICE GOODLAND KS
1000 AM CST TUE FEB 21 2017

NOTE:  "FAIR" INDICATES FEW OR NO CLOUDS BELOW 12,000 FEET WITH NO
SIGNIFICANT WEATHER AND/OR OBSTRUCTIONS TO VISIBILITY.

KSZ001>006-013>018-027>032-041>047-211700-
NORTHWEST KANSAS

CITY           SKY/WX    TMP DP  RH WIND       PRES   REMARKS
GOODLAND       SUNNY     54  19  25 NW3       30.03R
HAYS           SUNNY     54  33  45 SW14      30.06S
HILL CITY      SUNNY     55  30  38 SW8       30.04S
RUSSELL        SUNNY     51  35  54 SW12      30.04S
$$

KSZ061>065-074>080-084>089-211700-
SOUTHWEST KANSAS

CITY           SKY/WX    TMP DP  RH WIND       PRES   REMARKS
DODGE CITY     SUNNY     55  31  39 SW10      30.08S
ELKHART          N/A     59  24  26 W7          N/A
GARDEN CITY    SUNNY     58  21  24 SW13      30.06S
GREAT BEND     SUNNY     57  36  45 SW9       30.06S
LIBERAL        SUNNY     57  25  28 SW13      30.10S
PRATT          SUNNY     54  34  46 W7        30.06S
$$

KSZ066>073-081>083-090>101-211700-
SOUTHEAST KANSAS

CITY           SKY/WX    TMP DP  RH WIND       PRES   REMARKS
CHANUTE        SUNNY     56  48  74 N7        29.99R
COFFEYVILLE    SUNNY     57  50  77 N5        29.98R
HUTCHINSON     SUNNY     53  37  54 NW8       30.05R
MEDICINE LODGE   N/A     54  38  54 W6        30.05F
NEWTON         SUNNY     53  42  66 N8        30.05R
PARSONS        SUNNY     58  49  72 N7        29.98S
WICHITA INTL   MOSUNNY   54  40  59 N10       30.04R
WICHITA JABRA  SUNNY     54  43  66 N12       30.04R
WICHITA MCCONL SUNNY     53  40  61 NW9       30.03S
WINFIELD       SUNNY     55  45  68 N10       30.03S
$$

KSZ007>012-019>026-033>040-048>060-102>105-211700-
NORTHEAST KANSAS

CITY           SKY/WX    TMP DP  RH WIND       PRES   REMARKS
CONCORDIA      SUNNY     54  42  64 W8        30.03S
EMPORIA        SUNNY     54  45  71 N8        30.02R
LAWRENCE       SUNNY     60  46  59 VRB5      30.00S
MANHATTAN      SUNNY     48  43  82 CALM      30.04F
MARYSVILLE     SUNNY     50  43  76 S3        30.02F
OLATHE IND     SUNNY     54  46  74 N6        30.00R
OLATHE EXE     SUNNY     56  48  74 N8        29.99R
SALINA         SUNNY     50  39  66 E7        30.04F
TOPEKA BILLARD SUNNY     52  44  74 W6        30.02R
TOPEKA FORBES  SUNNY     55  45  68 N8        30.02R
$$




USA.gov is the U.S. government's official web portal to all federal, state and local government web resources and services.